カタログに戻る

STARLINK-5281

運用中通信VLEO
NORAD 54190·PAYLOAD·🇺🇸 United States

打ち上げ Oct 28, 2022 から Vandenberg Space Force Base

Loading…

次のパス (今後24時間)

TLE

最新Source: CelesTrak SupGP

元期: Sep 15, 2026, 02:33 UTC

1 54190C 22141AK  26258.10673611 -.00025255  00000+0 -74622-3 0  2589
2 54190  53.1581 214.6701 0001319  89.8952 303.5954 15.34400588    18

AllMySatでSTARLINK-5281をリアルタイム追跡

Download on the App Store